Orbital Elements at Epoch 2459200.5 (2020-Dec-17.0) TDB
Reference: JPL 20 (heliocentric ecliptic J2000)
Element | Value | Uncertainty (1-sigma) | Units |
e | .08744507320838808 | 3.6704e-08 | |
a | 2.702373619507636 | 1.5043e-08 | au |
q | 2.466064360513375 | 1.0489e-07 | au |
i | 1.31263718398496 | 4.4503e-06 | deg |
node | 345.9573279518896 | 0.00014697 | deg |
peri | 75.86922419737942 | 0.00014937 | deg |
M | 330.0335172315578 | 2.5225e-05 | deg |
tp | 2459335.567165825044 (2021-May-01.06716583) | 0.00011361 | TDB |
period | 1622.618846287225 4.44 | 1.3549e-05 3.71e-08 | d yr |
n | .221863563845403 | 1.8526e-09 | deg/d |
Q | 2.938682878501898 | 1.6359e-08 | au |
|
| | Orbit Determination Parameters
Additional Information
|